Location: Peebles
(55.6412°N, 3.1714°W)
Time: 01:45:06
(UTC+01:00)

deb r/b Ablestar - Pass Details

Date: 10 July 2022
Orbit: 859 x 1154 km, 67.2° (Epoch: 13 August)

Event Time Altitude Azimuth Distance (km) Brightness Sun altitude
Rises 22:42:17 0° 313° (NW) 4,002 ? -5.5°
Reaches altitude 10° 22:45:02 10° 317° (NW) 3,055 ? -5.7°
Maximum altitude 22:52:18 60° 37° (NE) 1,308 ? -6.3°
Drops below altitude 10° 22:59:28 10° 117° (ESE) 3,017 ? -6.8°
Enters shadow 23:01:10 - 120° (ESE) 3,602 ? -6.9°
